Showing default

MIDAS 6 (FTV 1169), 574

Orbit data source: Space-Track

MIDAS 6 (FTV 1169), 574 is a payload satellite owned by USAF SSD (US) in LEO that was launched on Thu, 09 May 1963 UTC via an ATLAS AGENA B launch vehicle from the Air Force Western Test Range (AFWTR). Payload-class satellites include a variety of spacecraft equipped with specific instruments for various scientific and technological missions. These include communications satellites like Starlink; space stations such as the ISS; scientific satellites like the Hubble; Earth observation satellites from companies like Planet Labs, Umbra, and HawkEye 360; GPS; miniature CubeSats for education and research; and military/defense satellites.

Loading next visibility...
Identifier
574, 1963-014A
Orbit
LEO
Country
Flag of USUS
Related business
Manufacturer
LMSC
Mission
Spacecraft
Bus & Motor
MIDAS, Unknown motor
Mass
~1,540 kg wet, ~840 kg dry
Launch date (UTC)
1963-05-09 (62 years ago)
Launch vehicle
ATLAS AGENA B
Launch site
Air Force Western Test Range (AFWTR)
Object type
Payload
Rocket body
Debris
Shape & HBR
Unknown
Radar Cross Section
Large (>1 m²)

Expand to show TLE details & history
Last TLE update: 5 hours ago

TLE from 5 hours ago
0 MIDAS 6 (FTV 1169)
1   574U 63014A   25288.80220174 -.00000004  00000-0 -32027-2 0  9991
2   574  87.3446 218.8623 0031492 359.6219   0.4607  8.65276180196640
Epoch: 2025-10-15T19:15Z
TLE epoch observation values (Epoch: 2025-10-15T19:15:10.230Z)
Latitude
-0.00006°
Longitude
-94.50138°
Altitude
3,614.738 km
Speed
6.326 km/s
True Right ascension
14h 35m 26s
True Declination
0° 00' 00"
Sunlit
Object was in daylight at epoch
Visualization orbit readout
Latitude
Unknown
Longitude
Unknown
Altitude
Unknown
Speed
Unknown
Apparent Right ascension
Unknown
Apparent Declination
Unknown
Sunlit
N/A
Visualization observer readout
Local Sidereal Time
18:44:44
Azimuth
Unknown
Elevation
Unknown
Doppler factor
Unknown
Orbital elements
Apogee altitude
3,673.494 km
Perigee altitude
3,610.384 km
Semi-major axis
10,020.076 km
Eccentricity
0.00315
Inclination
87.3446°
RAAN
218.8623°
Arg. of periapsis
359.6219°
True anomaly
0.46361°
Mean anomaly
0.4607°
Eccentric anomaly
0.46216°
Mean motion
2.1639 °/min
Orbital period
166.37 mins
BSTAR
-0.0032027

Documentation

Showing up to 5 results
|